Regional Weather Roundup
Issued by NWS Goodland, KS

Home | Current Version | Previous Version | Text Only | Print | Product List | Glossary Off
Versions: 1 2 3 4 5 6 7 8 9 10 11 12 13 14 15 16 17 18 19 20 21 22 23 24 25 26 27 28 29 30 31 32 33 34 35 36 37 38 39 40 41 42 43 44 45 46 47 48 49 50

000
ASUS43 KGLD 050008
RWRGLD

GOODLAND FORECAST AREA HOURLY WEATHER ROUNDUP
NATIONAL WEATHER SERVICE GOODLAND KS
500 PM MST SUN DEC 04 2016

...OFFICIAL OBSERVATIONS...

CITY           SKY/WX    TMP DP  RH WIND       PRES   REMARKS
GOODLAND KS    CLEAR     42  11  28 S10       29.87F
HILL CITY KS   CLEAR     42  19  39 S5        29.93S
IMPERIAL NEB   CLEAR     39   9  29 S12       29.82F
MCCOOK NEB     CLEAR     39  14  36 S8        29.86F
AKRON CO       CLEAR     37   8  30 SW10      29.80F
BURLINGTON CO  CLEAR     37  11  34 S13       29.87F
LIMON CO       CLEAR     34   9  35 SE9       29.86S
$$

...UNOFFICIAL OBSERVATIONS...

CITY           SKY/WX    TMP DP  RH WIND       PRES   REMARKS
COLBY KS       CLEAR     41  16  36 S7        29.90S
LENORA KS        N/A     40  32  73 MISG        N/A
NORTON KS      CLEAR     37  16  41 S7        29.89S
SHARON SPRINGS   N/A     36  14  40 S13         N/A
TRENTON NEB      N/A     35  32  89 S6          N/A
KIT CARSON CO    N/A     37  13  36 CALM        N/A
YUMA CO        FAIR      34  12  40 S12       29.81F
$$



USA.gov is the U.S. government's official web portal to all federal, state and local government web resources and services.